Camarillo, CA

7:55 AM PST on February 10, 2016 (GMT -0800)
Camarillo

Weather History for KCMA - February, 2013

Change the Weather History Date:

Thursday, February 14, 2013

  Actual Average Record
Temperature  
Mean Temperature 54 °F 54 °F  
Max Temperature 70 °F 65 °F 85 °F (1985)
Min Temperature 38 °F 42 °F 31 °F (1966)
Degree Days  
Heating Degree Days 11 12  
Month to date heating degree days 162 162  
Since 1 July heating degree days 1008 1181  
Cooling Degree Days 0 0  
Month to date cooling degree days 0 0  
Year to date cooling degree days 20 7  
Growing Degree Days 4 (Base 50)    
Moisture  
Dew Point 42 °F    
Average Humidity 61    
Maximum Humidity 82    
Minimum Humidity 40    
Precipitation  
Precipitation 0.00 in 0.15 in 1.92 in (1998)
Month to date precipitation T 1.64  
Year to date precipitation 1.07 5.11  
Since 1 July precipitation 3.78  
Sea Level Pressure  
Sea Level Pressure 30.16 in    
Wind  
Wind Speed 4 mph (South)    
Max Wind Speed 14 mph    
Max Gust Speed 16 mph    
Visibility 10 miles    
Events      
T = Trace of Precipitation, MM = Missing Value Source: NWS Daily Summary

Daily Weather History Graph

Daily Weather History Graph

Search for Another Location

Airport or City:

Trip Planner

Search our weather history database for the weather conditions in past years. The results will help you decide how hot, cold, wet, or windy it might be!

Date:

Astronomy

Feb. 14, 2013 Rise Set
Actual Time 6:41 AM PST 5:39 PM PST
Civil Twilight 6:16 AM PST 6:05 PM PST
Nautical Twilight 5:46 AM PST 6:34 PM PST
Astronomical Twilight 5:17 AM PST 7:03 PM PST
Moon 9:01 AM PST (2/14) 10:30 PM PST (2/14)
Length of Visible Light 11h 48m
Length of Day
10h 57m
Waxing Crescent, 22% of the Moon is Illuminated
Feb 14
Waxing Crescent
Feb 17
First Quarter
Feb 25
Full
Mar 4
Last Quarter
Mar 11
New

Hourly Weather History & Observations

Time (PST) Temp. Windchill Dew Point Humidity Pressure Visibility Wind Dir Wind Speed Gust Speed Precip Events Conditions
12:55 AM 44.1 °F - 37.0 °F 76% 30.19 in 10.0 mi Calm Calm - N/A   Clear
2:55 AM 43.0 °F 40.3 °F 35.1 °F 74% 30.17 in 10.0 mi NE 4.6 mph - N/A   Clear
3:55 AM 39.9 °F - 34.0 °F 79% 30.17 in 10.0 mi Calm Calm - N/A   Clear
4:55 AM 43.0 °F 41.3 °F 34.0 °F 71% 30.17 in 10.0 mi ENE 3.5 mph - N/A   Clear
5:55 AM 41.0 °F 39.0 °F 33.1 °F 73% 30.16 in 10.0 mi ENE 3.5 mph - N/A   Clear
7:55 AM 45.0 °F - 37.0 °F 74% 30.18 in 10.0 mi Calm Calm - N/A   Clear
8:55 AM 55.0 °F - 37.0 °F 51% 30.20 in 10.0 mi Calm Calm - N/A   Clear
9:55 AM 60.1 °F - 45.0 °F 57% 30.23 in 10.0 mi SSW 8.1 mph - N/A   Clear
10:55 AM 61.0 °F - 48.0 °F 62% 30.21 in 10.0 mi SW 5.8 mph - N/A   Clear
11:55 AM 66.0 °F - 46.9 °F 50% 30.17 in 10.0 mi West 5.8 mph - N/A   Clear
12:55 PM 70.0 °F - 48.0 °F 46% 30.13 in 10.0 mi SSW 8.1 mph - N/A   Clear
1:55 PM 66.9 °F - 48.0 °F 51% 30.10 in 9.0 mi SSW 10.4 mph - N/A   Clear
2:55 PM 64.9 °F - 42.1 °F 43% 30.11 in 10.0 mi SW 10.4 mph - N/A   Clear
3:55 PM 64.9 °F - 39.0 °F 39% 30.12 in 10.0 mi SW 9.2 mph - N/A   Clear
4:55 PM 62.1 °F - 44.1 °F 52% 30.12 in 10.0 mi SSW 5.8 mph - N/A   Clear
5:55 PM 59.0 °F - 46.9 °F 64% 30.14 in 10.0 mi Calm Calm - N/A   Clear
6:55 PM 57.0 °F - 46.9 °F 69% 30.16 in 10.0 mi Calm Calm - N/A   Clear
7:55 PM 55.0 °F - 46.0 °F 72% 30.16 in 10.0 mi Calm Calm - N/A   Clear
8:55 PM 52.0 °F - 44.1 °F 74% 30.18 in 10.0 mi NE 4.6 mph - N/A   Clear
9:55 PM 48.9 °F - 41.0 °F 74% 30.19 in 10.0 mi Calm Calm - N/A   Clear
10:55 PM 52.0 °F - 41.0 °F 66% 30.17 in 10.0 mi East 4.6 mph - N/A   Clear
11:55 PM 50.0 °F - 39.0 °F 66% 30.17 in 10.0 mi South 6.9 mph - N/A   Clear